Hourly Data Report for September 06, 2017

All times are specified in Local Standard Time (LST). Add 1 hour to adjust for Daylight Saving Time where and when it is observed.

CAPE DORSET A
NUNAVUT

64°13'49.000" N
76°31'30.000" W
48.20 m
2400637
71366
YTE

Download Data

Hourly Data (September 2017)
Hourly Data Report for September 6, 2017
Temp Definition
°C
Dew Point Temp Definition
°C
Rel Hum Definition
%
Wind Dir Definition
10's deg

Wind Spd Definition
km/h
Visibility Definition
km
Stn Press Definition
kPa
Hmdx Definition


Wind Chill Definition


Weather Definition


TIME
00:00 Legend Double Dagger 3.7 1.1 83 3 11 16.1 100.26     LegendNANA
01:00 Legend Double Dagger 3.5 1.1 84 1 9 16.1 100.31     LegendNANA
02:00 Legend Double Dagger 3.3 0.8 84 3 9 16.1 100.31     LegendNANA
03:00 Legend Double Dagger 3.4 0.7 82 2 9 16.1 100.33     LegendNANA
04:00 Legend Double Dagger 3.2 0.6 83 36 9 16.1 100.34     LegendNANA
05:00 Legend Double Dagger 2.9 0.6 85 35 9 16.1 100.38     LegendNANA
06:00 Legend Double Dagger 2.5 0.2 85 35 8 16.1 100.42     LegendNANA
07:00 Legend Double Dagger 2.5 0.6 87 1 9 16.1 100.47     LegendNANA
08:00 Legend Double Dagger 3.6 1.2 84 1 13 16.1 100.50     LegendNANA
09:00 Legend Double Dagger 4.0 1.7 85 36 15 16.1 100.53     LegendNANA
10:00 Legend Double Dagger 4.5 1.9 83 1 15 16.1 100.55     LegendNANA
11:00 Legend Double Dagger 4.7 1.9 82 2 13 16.1 100.57     LegendNANA
12:00 Legend Double Dagger 4.9 1.6 79 3 15 16.1 100.61     LegendNANA
13:00 Legend Double Dagger 5.3 1.4 76 2 17 16.1 100.64     LegendNANA
14:00 Legend Double Dagger 5.5 1.2 74 2 17 16.1 100.68     LegendNANA
15:00 Legend Double Dagger 5.7 0.7 70 2 15 16.1 100.73     LegendNANA
16:00 Legend Double Dagger 5.3 -0.4 67 3 18 16.1 100.77     LegendNANA
17:00 Legend Double Dagger 4.8 -0.3 70 2 21 16.1 100.83     LegendNANA
18:00 Legend Double Dagger 3.5 -0.7 74 2 21 16.1 100.89     LegendNANA
19:00 Legend Double Dagger 2.4 -1.0 78 2 21 16.1 100.93     LegendNANA
20:00 Legend Double Dagger 1.8 -1.3 80 3 18 16.1 100.99     LegendNANA
21:00 Legend Double Dagger 1.7 -1.3 81 3 15 16.1 101.02     LegendNANA
22:00 Legend Double Dagger 1.4 -1.9 79 5 17 16.1 101.03     LegendNANA
23:00 Legend Double Dagger 1.0 -2.1 80 5 17 16.1 101.06     LegendNANA

Notes on Data Quality.

Legend

  • E = Estimated
  • M = Missing
  • NA = Not Available
  • ‡ = Partner data that is not subject to review by the National Climate Archives
Date modified: